Find Starlink 31763

NORAD ID: 59623 Int'l Des: 2024-080 Owner: SPXS Country: US Constellation: starlink operational
LEOCIRCULAR

Live Position

Loading 3D Globe...

About Starlink 31763

Description loading...

Upcoming Passes

Passes for default location (London). Set your location on the main map for personalized predictions.

Altitude History

Loading altitude history...

Two-Line Element Set

1 59623U 24080Y 26105.53798601 .00001185 00000-0 52595-4 0 9997
2 59623 43.0023 190.1934 0001214 286.0734 73.9984 15.27580004110165
Epoch: Apr 15, 2026 • Age: 20 hours

Current Status

Altitude 487.3 km
Velocity 7.62 km/s
Sub-Earth Point -19.91°S, 53.9°E
Launch Date Apr 28, 2024
Age 1.9 years
Type internet

Technical Details

Classification Payload
Mass 730.00 kg
Dry Mass 700.00 kg
Total Mass 730.00 kg
Length 0.30 m
Diameter 4.10 m
Span 29.00 m
Shape Box + pan
Manufacturer SPXS
Bus Type Starlink V2M
Phase Status In Orbit
Owner/State SPXS/US

Most Searched